Find Starlink 35521

NORAD ID: 65916 Int'l Des: 2025-225 Owner: SPXS Country: US Constellation: starlink operational
LEOCIRCULAR

Live Position

Loading 3D Globe...

About Starlink 35521

Description loading...

Upcoming Passes

Passes for default location (London). Set your location on the main map for personalized predictions.

Altitude History

Loading altitude history...

Two-Line Element Set

1 65916U 25225G 26103.41370096 .00009200 00000-0 32231-3 0 9990
2 65916 53.1593 4.4502 0001188 77.6572 282.4561 15.30203602 29722
Epoch: Apr 13, 2026 • Age: 43 hours

Current Status

Altitude 494.1 km
Velocity 7.62 km/s
Sub-Earth Point -52.43°S, 32.6°W
Launch Date Oct 8, 2025
Age 0.5 years
Type internet

Technical Details

Classification Payload
Mass 575.00 kg
Dry Mass 530.00 kg
Total Mass 575.00 kg
Length 0.30 m
Diameter 4.10 m
Span 29.00 m
Shape Box + pan
Manufacturer SPXS
Bus Type Starlink V2MO
Phase Status In Orbit
Owner/State SPXS/US

Most Searched